FLOCK 2K-09

Last updated on Wed Feb 14 2018 16:20:54 GMT+0000 (Coordinated Universal Time)

1 42896U 17042BZ 18044.95107718 .00006569 00000-0 19153-3 0 9996 2 42896 96.9934 307.8723 0012525 175.7832 184.3521 15.35599814 32895

Satellite not in orbit

FLOCK 2K-09